#�ϑ�����,���ϕ���,���ϕ���,�ő啗��,�ő啗����������,�ő�u�ԕ���,�ő�u�ԕ�����������
#(�N����),(m/s)   ,(16����),(m/s)   ,(16����)        ,(m/s)       ,(16����)            
2012/3/15 0:01,0.5,16,0.5,16,1.4,16
2012/3/15 0:02,0.5,16,0.5,16,1.6,15
2012/3/15 0:03,0.5,16,0.5,16,1.5,16
2012/3/15 0:04,0.6,16,0.6,16,1.6,15
2012/3/15 0:05,0.7,16,0.7,16,1.5,16
2012/3/15 0:06,0.7,16,0.7,16,1.4,15
2012/3/15 0:07,0.9,16,0.9,16,1.9,15
2012/3/15 0:08,1,16,1,16,2.6,15
2012/3/15 0:09,1,15,1,16,1.8,15
2012/3/15 0:10,1,15,1.1,15,1.6,15
2012/3/15 0:11,1,15,1,15,1.6,15
2012/3/15 0:12,0.9,15,1,15,0.5,13
2012/3/15 0:13,0.8,14,0.9,15,0,12
2012/3/15 0:14,0.7,14,0.8,15,0.1,12
2012/3/15 0:15,0.6,14,0.7,15,0,12
2012/3/15 0:16,0.6,14,0.6,15,1,16
2012/3/15 0:17,0.6,14,0.6,15,1,16
2012/3/15 0:18,0.5,14,0.6,15,1.1,16
2012/3/15 0:19,0.5,14,0.5,15,0.9,1
2012/3/15 0:20,0.4,14,0.5,15,0.6,16
2012/3/15 0:21,0.4,14,0.4,15,0.5,14
2012/3/15 0:22,0.4,15,0.4,15,1.3,15
2012/3/15 0:23,0.5,15,0.5,14,1.3,15
2012/3/15 0:24,0.6,15,0.6,14,1.1,14
2012/3/15 0:25,0.7,15,0.7,15,1.1,14
2012/3/15 0:26,0.7,15,0.7,15,1.3,15
2012/3/15 0:27,0.7,15,0.7,15,1,14
2012/3/15 0:28,0.7,14,0.7,15,1,12
2012/3/15 0:29,0.6,14,0.7,15,0.3,12
2012/3/15 0:30,0.6,14,0.6,15,0.1,8
2012/3/15 0:31,0.6,14,0.6,15,0,6
2012/3/15 0:32,0.5,14,0.6,15,0.1,1
2012/3/15 0:33,0.4,14,0.5,15,0.1,12
2012/3/15 0:34,0.3,14,0.4,15,0.1,12
2012/3/15 0:35,0.3,14,0.3,15,0.6,4
2012/3/15 0:36,0.2,14,0.3,15,0.4,3
2012/3/15 0:37,0.1,14,0.2,15,0.4,13
2012/3/15 0:38,0.1,16,0.1,14,0.5,1
2012/3/15 0:39,0.1,1,0.1,14,0.6,1
2012/3/15 0:40,0.1,1,0.1,14,0.3,1
2012/3/15 0:41,0.1,16,0.1,14,0,1
2012/3/15 0:42,0.1,16,0.1,14,0.3,7
2012/3/15 0:43,0.1,1,0.1,14,0.1,11
2012/3/15 0:44,0.1,1,0.1,14,0.4,1
2012/3/15 0:45,0.1,1,0.1,14,0.6,1
2012/3/15 0:46,0.1,1,0.1,14,0.4,2
2012/3/15 0:47,0.1,1,0.1,14,0,2
2012/3/15 0:48,0.1,2,0.1,16,0.1,2
2012/3/15 0:49,0.1,2,0.1,1,1,1
2012/3/15 0:50,0.2,2,0.2,2,1.5,1
2012/3/15 0:51,0.3,2,0.3,2,1.6,1
2012/3/15 0:52,0.4,2,0.4,2,1.3,1
2012/3/15 0:53,0.5,1,0.5,2,1.3,1
2012/3/15 0:54,0.6,1,0.6,1,1,1
2012/3/15 0:55,0.5,1,0.6,1,0.3,14
2012/3/15 0:56,0.6,1,0.6,1,0.9,1
2012/3/15 0:57,0.6,1,0.6,1,0.6,13
2012/3/15 0:58,0.6,16,0.6,1,0.6,13
2012/3/15 0:59,0.6,16,0.6,1,0,12
2012/3/15 1:00,0.5,15,0.6,1,0.8,10
2012/3/15 1:01,0.5,14,0.5,1,1,10
2012/3/15 1:02,0.5,13,0.5,1,1.1,11
2012/3/15 1:03,0.5,12,0.5,1,1.1,11
2012/3/15 1:04,0.5,12,0.5,1,1,12
2012/3/15 1:05,0.6,12,0.6,1,1,12
2012/3/15 1:06,0.6,12,0.6,1,1.1,12
2012/3/15 1:07,0.7,11,0.7,11,1,12
2012/3/15 1:08,0.7,12,0.7,11,1.3,1
2012/3/15 1:09,0.7,12,0.7,11,1.4,1
2012/3/15 1:10,0.7,12,0.8,12,0.4,15
2012/3/15 1:11,0.7,13,0.7,12,1.1,1
2012/3/15 1:12,0.7,14,0.7,12,1.5,1
2012/3/15 1:13,0.8,15,0.8,12,1.6,1
2012/3/15 1:14,0.7,16,0.8,12,1.1,1
2012/3/15 1:15,0.7,16,0.7,12,1.3,1
2012/3/15 1:16,0.7,1,0.8,12,1.5,1
2012/3/15 1:17,0.8,1,0.8,12,1.8,2
2012/3/15 1:18,0.9,1,0.9,1,1.8,1
2012/3/15 1:19,0.9,1,0.9,1,1.6,2
2012/3/15 1:20,1,1,1,1,1.8,1
2012/3/15 1:21,1.1,1,1.1,1,1.8,1
2012/3/15 1:22,1.1,1,1.1,1,1.9,16
2012/3/15 1:23,1.1,1,1.1,1,1.8,16
2012/3/15 1:24,1.2,1,1.2,1,1.6,16
2012/3/15 1:25,1.2,1,1.2,1,1.1,16
2012/3/15 1:26,1.2,1,1.2,1,0.9,16
2012/3/15 1:27,1.1,16,1.2,1,0.8,15
2012/3/15 1:28,0.9,16,1,1,0.3,14
2012/3/15 1:29,0.8,15,0.9,1,0,12
2012/3/15 1:30,0.7,15,0.8,1,0.1,12
2012/3/15 1:31,0.6,15,0.7,1,0.6,2
2012/3/15 1:32,0.5,15,0.6,1,1,16
2012/3/15 1:33,0.5,15,0.5,1,1,16
2012/3/15 1:34,0.5,15,0.5,1,1.5,14
2012/3/15 1:35,0.4,15,0.5,1,0.8,14
2012/3/15 1:36,0.3,14,0.4,1,0.3,14
2012/3/15 1:37,0.3,14,0.3,16,0,14
2012/3/15 1:38,0.3,15,0.3,16,0.1,14
2012/3/15 1:39,0.3,14,0.3,15,0.5,9
2012/3/15 1:40,0.3,15,0.3,15,0.8,8
2012/3/15 1:41,0.3,15,0.3,15,0.6,4
2012/3/15 1:42,0.3,15,0.3,15,0,4
2012/3/15 1:43,0.2,15,0.3,15,0,4
2012/3/15 1:44,0.1,1,0.2,15,0,4
2012/3/15 1:45,0.1,3,0.1,15,0.1,4
2012/3/15 1:46,0.1,4,0.1,14,0,4
2012/3/15 1:47,0.1,4,0.1,14,0.3,4
2012/3/15 1:48,0.1,4,0.1,15,0.3,4
2012/3/15 1:49,0.1,4,0.1,14,0.5,2
2012/3/15 1:50,0.1,3,0.1,15,0.9,16
2012/3/15 1:51,0.2,3,0.2,15,1.1,15
2012/3/15 1:52,0.2,2,0.2,15,1.1,15
2012/3/15 1:53,0.3,2,0.3,2,0.8,15
2012/3/15 1:54,0.3,1,0.3,2,1.1,16
2012/3/15 1:55,0.4,1,0.4,1,1,15
2012/3/15 1:56,0.5,16,0.5,16,0.8,14
2012/3/15 1:57,0.5,16,0.5,16,0.8,14
2012/3/15 1:58,0.6,15,0.6,15,0.6,14
2012/3/15 1:59,0.5,15,0.6,15,0.1,14
2012/3/15 2:00,0.5,15,0.5,15,0.5,8
2012/3/15 2:01,0.4,14,0.5,15,0.6,9
2012/3/15 2:02,0.4,14,0.4,15,0.1,4
2012/3/15 2:03,0.3,14,0.4,15,0,4
2012/3/15 2:04,0.3,13,0.3,15,0.9,9
2012/3/15 2:05,0.3,12,0.3,15,1,9
2012/3/15 2:06,0.3,10,0.3,15,1.3,9
2012/3/15 2:07,0.3,9,0.3,15,1.1,8
2012/3/15 2:08,0.4,9,0.4,15,1,9
2012/3/15 2:09,0.5,9,0.5,15,1,9
2012/3/15 2:10,0.5,9,0.5,15,1.3,10
2012/3/15 2:11,0.6,9,0.6,9,1.1,9
2012/3/15 2:12,0.7,9,0.7,9,1,10
2012/3/15 2:13,0.7,10,0.7,9,1,12
2012/3/15 2:14,0.8,10,0.8,10,1.1,13
2012/3/15 2:15,0.9,10,0.9,10,1.6,13
2012/3/15 2:16,0.9,11,0.9,10,1.5,13
2012/3/15 2:17,0.9,11,0.9,10,1.5,12
2012/3/15 2:18,0.9,12,0.9,10,1.3,13
2012/3/15 2:19,0.9,12,0.9,10,1.3,13
2012/3/15 2:20,0.9,12,0.9,10,1.3,13
2012/3/15 2:21,0.9,13,0.9,10,1.5,13
2012/3/15 2:22,0.9,13,0.9,10,1.1,14
2012/3/15 2:23,1,13,1,13,1.6,13
2012/3/15 2:24,1,13,1,13,1,15
2012/3/15 2:25,0.9,14,1,13,0.9,15
2012/3/15 2:26,0.8,14,0.9,13,0.1,16
2012/3/15 2:27,0.7,14,0.8,13,0.8,14
2012/3/15 2:28,0.7,14,0.7,13,1.1,14
2012/3/15 2:29,0.7,14,0.7,13,1,13
2012/3/15 2:30,0.7,14,0.7,13,1,12
2012/3/15 2:31,0.6,14,0.7,13,0.8,12
2012/3/15 2:32,0.6,14,0.6,13,0.3,12
2012/3/15 2:33,0.5,14,0.6,13,0.6,12
2012/3/15 2:34,0.4,13,0.5,13,0.6,13
2012/3/15 2:35,0.4,13,0.4,14,0.4,12
2012/3/15 2:36,0.4,12,0.4,14,0.5,9
2012/3/15 2:37,0.4,12,0.4,14,0,5
2012/3/15 2:38,0.3,11,0.4,14,0.1,5
2012/3/15 2:39,0.2,12,0.3,14,0.1,16
2012/3/15 2:40,0.1,11,0.2,14,0.1,16
2012/3/15 2:41,0.1,8,0.1,14,0,5
2012/3/15 2:42,0.1,5,0.1,14,0.5,16
2012/3/15 2:43,0.2,4,0.2,14,1.9,16
2012/3/15 2:44,0.4,3,0.4,13,2,16
2012/3/15 2:45,0.5,3,0.5,3,2,16
2012/3/15 2:46,0.6,2,0.6,3,1.8,2
2012/3/15 2:47,0.7,2,0.7,2,1.6,16
2012/3/15 2:48,0.8,1,0.8,1,1.1,1
2012/3/15 2:49,0.9,2,0.9,2,1.3,2
2012/3/15 2:50,0.9,1,0.9,2,1.1,2
2012/3/15 2:51,1,1,1,1,0.8,2
2012/3/15 2:52,1,1,1,1,1.3,15
2012/3/15 2:53,1,1,1,1,2.1,1
2012/3/15 2:54,1,1,1,1,2.2,1
2012/3/15 2:55,1.1,1,1.1,1,3.3,16
2012/3/15 2:56,1.2,16,1.2,1,3.7,16
2012/3/15 2:57,1.3,16,1.3,16,2.7,16
2012/3/15 2:58,1.6,16,1.6,16,6.2,16
2012/3/15 2:59,1.9,16,1.9,16,6.3,16
2012/3/15 3:00,2.4,16,2.4,16,9.3,15
2012/3/15 3:01,3,16,3,16,9.2,16
2012/3/15 3:02,3.4,16,3.4,16,7.7,16
2012/3/15 3:03,3.7,15,3.7,15,7.9,15
2012/3/15 3:04,4.1,15,4.1,15,8.5,15
2012/3/15 3:05,4.3,16,4.3,16,7.1,15
2012/3/15 3:06,4.5,16,4.5,16,6.8,16
2012/3/15 3:07,4.7,16,4.7,16,7.5,16
2012/3/15 3:08,4.8,16,4.8,16,6.4,15
2012/3/15 3:09,4.8,16,4.8,16,6,15
2012/3/15 3:10,4.6,16,4.9,16,4.7,15
2012/3/15 3:11,4.3,16,4.6,16,5.6,16
2012/3/15 3:12,4.1,16,4.3,16,5.5,16
2012/3/15 3:13,4.1,16,4.1,16,4.5,1
2012/3/15 3:14,3.7,16,4,16,4.9,1
2012/3/15 3:15,3.7,16,3.7,16,5.8,15
2012/3/15 3:16,3.6,16,3.7,16,5.5,15
2012/3/15 3:17,3.6,16,3.6,16,5,15
2012/3/15 3:18,3.4,16,3.6,16,4.4,15
2012/3/15 3:19,3.2,16,3.4,16,4.5,15
2012/3/15 3:20,3.2,16,3.2,16,3.3,15
2012/3/15 3:21,3.1,16,3.2,16,3.2,16
2012/3/15 3:22,3,16,3.1,16,3.5,15
2012/3/15 3:23,2.8,16,3,16,2.7,16
2012/3/15 3:24,2.7,16,2.8,16,1.6,1
2012/3/15 3:25,2.6,16,2.7,16,3.2,1
2012/3/15 3:26,2.5,16,2.5,16,3.7,16
2012/3/15 3:27,2.4,16,2.5,16,3.9,16
2012/3/15 3:28,2.2,16,2.3,16,2.7,15
2012/3/15 3:29,2,16,2.2,16,1.6,15
2012/3/15 3:30,1.9,15,2,16,3,12
2012/3/15 3:31,1.9,15,1.9,16,3.1,11
2012/3/15 3:32,1.8,15,1.9,16,3.2,9
2012/3/15 3:33,1.8,14,1.8,16,3.9,9
2012/3/15 3:34,1.9,13,1.9,16,3.3,9
2012/3/15 3:35,1.8,12,1.9,16,2.9,10
2012/3/15 3:36,1.7,11,1.8,16,2.5,9
2012/3/15 3:37,1.5,10,1.7,16,2.1,10
2012/3/15 3:38,1.6,9,1.6,16,2.9,5
2012/3/15 3:39,1.6,9,1.6,16,1.9,5
2012/3/15 3:40,1.6,8,1.6,15,2.9,8
2012/3/15 3:41,1.6,8,1.6,15,3.6,8
2012/3/15 3:42,1.7,8,1.7,14,2.7,9
2012/3/15 3:43,1.6,8,1.7,14,2.7,7
2012/3/15 3:44,1.7,8,1.7,13,4.5,8
2012/3/15 3:45,1.8,8,1.8,12,3.7,11
2012/3/15 3:46,2,8,2,8,6.1,10
2012/3/15 3:47,2.2,8,2.2,8,4.8,11
2012/3/15 3:48,2.1,9,2.2,8,3.7,10
2012/3/15 3:49,2.1,9,2.1,8,2,10
2012/3/15 3:50,2.1,9,2.2,8,2.4,1
2012/3/15 3:51,2,10,2.1,8,2.2,8
2012/3/15 3:52,1.8,10,1.9,8,1.3,8
2012/3/15 3:53,1.8,9,1.8,8,1,9
2012/3/15 3:54,1.6,10,1.8,8,2.1,9
2012/3/15 3:55,1.6,10,1.6,8,2.1,9
2012/3/15 3:56,1.3,10,1.6,8,2,9
2012/3/15 3:57,1.1,9,1.3,8,1.5,8
2012/3/15 3:58,1.1,9,1.1,9,1.6,5
2012/3/15 3:59,1.1,9,1.1,9,2.4,8
2012/3/15 4:00,1,9,1.1,9,1,8
2012/3/15 4:01,0.9,9,1,10,0.6,11
2012/3/15 4:02,0.9,9,0.9,10,2,16
2012/3/15 4:03,1,10,1,9,1.8,15
2012/3/15 4:04,0.9,10,0.9,10,1.1,14
2012/3/15 4:05,0.8,11,0.9,10,1.5,13
2012/3/15 4:06,0.8,11,0.8,10,0.9,9
2012/3/15 4:07,0.8,12,0.8,9,1,13
2012/3/15 4:08,0.8,13,0.8,9,1.4,13
2012/3/15 4:09,0.8,13,0.8,9,1.4,13
2012/3/15 4:10,0.9,13,0.9,9,2,12
2012/3/15 4:11,1,13,1,10,2.1,13
2012/3/15 4:12,1.2,13,1.2,13,2,12
2012/3/15 4:13,1.2,13,1.2,13,1.9,13
2012/3/15 4:14,1.3,13,1.3,13,2.1,13
2012/3/15 4:15,1.4,13,1.4,13,2.1,13
2012/3/15 4:16,1.5,13,1.5,13,2.2,13
2012/3/15 4:17,1.5,13,1.5,13,1.5,13
2012/3/15 4:18,1.6,13,1.6,13,1.6,12
2012/3/15 4:19,1.6,13,1.6,13,1.6,13
2012/3/15 4:20,1.6,13,1.6,13,1.8,13
2012/3/15 4:21,1.5,13,1.6,13,1.8,13
2012/3/15 4:22,1.5,13,1.5,13,1.8,12
2012/3/15 4:23,1.5,13,1.5,13,1.8,11
2012/3/15 4:24,1.4,12,1.5,13,2.5,11
2012/3/15 4:25,1.4,12,1.4,13,2.1,11
2012/3/15 4:26,1.4,12,1.4,13,2.7,10
2012/3/15 4:27,1.4,12,1.4,13,2.4,11
2012/3/15 4:28,1.5,12,1.5,13,3.1,12
2012/3/15 4:29,1.6,12,1.6,13,3.1,11
2012/3/15 4:30,1.5,11,1.6,13,1.9,13
2012/3/15 4:31,1.5,11,1.5,12,1.8,10
2012/3/15 4:32,1.5,11,1.5,12,1.9,9
2012/3/15 4:33,1.5,11,1.5,12,3.3,10
2012/3/15 4:34,1.6,11,1.6,12,2.6,10
2012/3/15 4:35,1.6,11,1.6,12,2.9,11
2012/3/15 4:36,1.6,11,1.6,12,2.9,11
2012/3/15 4:37,1.5,11,1.6,12,2.5,11
2012/3/15 4:38,1.4,11,1.5,12,1.4,13
2012/3/15 4:39,1.2,11,1.3,12,0.8,7
2012/3/15 4:40,1.2,11,1.2,11,1.8,8
2012/3/15 4:41,1.1,10,1.2,11,1,8
2012/3/15 4:42,1,11,1.1,11,0.3,8
2012/3/15 4:43,0.8,11,1,11,0.8,3
2012/3/15 4:44,0.7,10,0.8,11,0.4,3
2012/3/15 4:45,0.5,9,0.7,11,0.1,4
2012/3/15 4:46,0.3,7,0.5,11,0.1,4
2012/3/15 4:47,0.2,5,0.3,11,0.1,3
2012/3/15 4:48,0.2,5,0.2,11,0.6,2
2012/3/15 4:49,0.2,4,0.2,11,0,16
2012/3/15 4:50,0.1,3,0.2,11,0,3
2012/3/15 4:51,0.1,3,0.1,10,0.1,12
2012/3/15 4:52,0.1,3,0.1,11,0.9,9
2012/3/15 4:53,0.1,3,0.1,11,1.1,11
2012/3/15 4:54,0.1,3,0.1,10,0.3,11
2012/3/15 4:55,0.2,2,0.2,8,1.8,16
2012/3/15 4:56,0.4,1,0.4,1,2.2,16
2012/3/15 4:57,0.5,1,0.5,1,2,16
2012/3/15 4:58,0.5,1,0.5,1,0.9,1
2012/3/15 4:59,0.5,16,0.5,1,0.4,1
2012/3/15 5:00,0.5,16,0.5,1,0.1,1
2012/3/15 5:01,0.5,1,0.5,1,0.6,2
2012/3/15 5:02,0.6,1,0.6,1,1.1,3
2012/3/15 5:03,0.6,1,0.6,1,1.1,2
2012/3/15 5:04,0.6,2,0.6,1,1.3,1
2012/3/15 5:05,0.6,2,0.6,1,0.8,2
2012/3/15 5:06,0.5,2,0.6,1,1.3,16
2012/3/15 5:07,0.5,2,0.5,1,1.8,15
2012/3/15 5:08,0.6,1,0.6,1,2.2,16
2012/3/15 5:09,0.8,1,0.8,1,2.2,16
2012/3/15 5:10,0.9,1,0.9,1,2,16
2012/3/15 5:11,1,1,1,1,1.9,16
2012/3/15 5:12,1.1,1,1.1,1,1.6,1
2012/3/15 5:13,1.1,1,1.1,1,1.3,16
2012/3/15 5:14,1.2,1,1.2,1,1.6,1
2012/3/15 5:15,1.2,1,1.2,1,1.1,2
2012/3/15 5:16,1.2,1,1.2,1,1.4,2
2012/3/15 5:17,1.2,1,1.2,1,0.9,2
2012/3/15 5:18,1.1,1,1.2,1,0.8,4
2012/3/15 5:19,0.9,2,1.1,1,0.3,3
2012/3/15 5:20,0.7,2,0.9,1,0.1,3
2012/3/15 5:21,0.6,3,0.7,1,0.1,8
2012/3/15 5:22,0.5,3,0.6,1,0.1,11
2012/3/15 5:23,0.4,3,0.5,1,0,11
2012/3/15 5:24,0.3,4,0.4,1,0.1,11
2012/3/15 5:25,0.2,8,0.2,1,0.1,11
2012/3/15 5:26,0.1,10,0.2,1,0,11
2012/3/15 5:27,0,10,0.1,1,0.3,11
2012/3/15 5:28,0,10,0,1,0.9,9
2012/3/15 5:29,0,10,0,2,0.6,10
2012/3/15 5:30,0.1,11,0.1,2,0.8,10
2012/3/15 5:31,0.1,11,0.1,3,0.6,11
2012/3/15 5:32,0.2,11,0.2,3,1.1,11
2012/3/15 5:33,0.3,11,0.3,3,1.1,11
2012/3/15 5:34,0.4,11,0.4,11,1.4,11
2012/3/15 5:35,0.5,11,0.5,11,1.9,12
2012/3/15 5:36,0.7,11,0.7,11,2.5,12
2012/3/15 5:37,0.9,11,0.9,11,2.5,12
2012/3/15 5:38,1.1,11,1.1,11,2.1,12
2012/3/15 5:39,1.2,12,1.2,11,2.2,12
2012/3/15 5:40,1.4,12,1.4,12,2.7,12
2012/3/15 5:41,1.5,12,1.5,12,2.4,9
2012/3/15 5:42,1.7,12,1.7,12,3,11
2012/3/15 5:43,1.8,12,1.8,12,2.6,11
2012/3/15 5:44,1.9,12,1.9,12,3,10
2012/3/15 5:45,2,12,2,12,3.2,10
2012/3/15 5:46,2,11,2.1,12,2.9,11
2012/3/15 5:47,2.1,11,2.1,12,3.3,10
2012/3/15 5:48,2.1,11,2.1,12,2.7,10
2012/3/15 5:49,2,11,2.1,12,1.6,9
2012/3/15 5:50,1.8,11,2,12,1,10
2012/3/15 5:51,1.7,11,1.8,12,1.4,12
2012/3/15 5:52,1.5,11,1.7,12,1.3,11
2012/3/15 5:53,1.4,11,1.5,12,0.8,12
2012/3/15 5:54,1.2,11,1.3,12,0.4,15
2012/3/15 5:55,0.9,11,1.1,12,0.1,10
2012/3/15 5:56,0.7,12,0.9,11,0.5,3
2012/3/15 5:57,0.5,12,0.7,11,0.5,3
2012/3/15 5:58,0.4,13,0.5,11,0.8,5
2012/3/15 5:59,0.4,15,0.4,11,1.1,3
2012/3/15 6:00,0.4,1,0.4,11,1.5,3
2012/3/15 6:01,0.5,2,0.5,11,1.3,4
2012/3/15 6:02,0.5,3,0.5,11,1.6,5
2012/3/15 6:03,0.6,4,0.6,11,1.4,4
2012/3/15 6:04,0.6,4,0.6,11,1.1,3
2012/3/15 6:05,0.8,4,0.8,11,2.1,3
2012/3/15 6:06,0.9,4,0.9,4,2,3
2012/3/15 6:07,1,4,1,4,1.8,4
2012/3/15 6:08,0.9,4,1,4,0.9,4
2012/3/15 6:09,0.8,4,0.9,4,0.3,4
2012/3/15 6:10,0.7,4,0.8,4,0.4,4
2012/3/15 6:11,0.6,4,0.7,4,0.1,4
2012/3/15 6:12,0.5,4,0.6,4,0.1,1
2012/3/15 6:13,0.5,3,0.5,4,0,1
2012/3/15 6:14,0.4,3,0.5,4,0,1
2012/3/15 6:15,0.3,3,0.4,4,0,1
2012/3/15 6:16,0.1,2,0.2,4,0,16
2012/3/15 6:17,0,2,0.1,4,0.1,10
2012/3/15 6:18,0,2,0,4,0.6,10
2012/3/15 6:19,0,1,0,4,0.5,10
2012/3/15 6:20,0.1,15,0.1,4,0.6,9
2012/3/15 6:21,0.1,13,0.1,4,0.1,10
2012/3/15 6:22,0.1,12,0.1,4,0.9,9
2012/3/15 6:23,0.1,11,0.1,3,1.8,11
2012/3/15 6:24,0.3,11,0.3,3,1.8,10
2012/3/15 6:25,0.4,11,0.4,11,1.9,11
2012/3/15 6:26,0.6,10,0.6,10,2.1,9
2012/3/15 6:27,0.8,10,0.8,10,2.2,10
2012/3/15 6:28,0.9,10,0.9,10,2.4,10
2012/3/15 6:29,1.1,10,1.1,10,2.6,10
2012/3/15 6:30,1.3,10,1.3,10,3,9
2012/3/15 6:31,1.4,10,1.4,10,2.7,10
2012/3/15 6:32,1.6,11,1.6,11,2.5,13
2012/3/15 6:33,1.7,11,1.7,11,2.7,11
2012/3/15 6:34,1.7,11,1.7,11,2.7,9
2012/3/15 6:35,1.8,11,1.8,11,3.2,10
2012/3/15 6:36,1.8,11,1.9,11,2.6,11
2012/3/15 6:37,1.7,11,1.8,11,1.9,12
2012/3/15 6:38,1.6,11,1.7,11,1.5,9
2012/3/15 6:39,1.6,11,1.6,11,1.6,10
2012/3/15 6:40,1.4,11,1.6,11,1.3,8
2012/3/15 6:41,1.3,11,1.4,11,0.3,9
2012/3/15 6:42,1.1,11,1.3,11,0.1,12
2012/3/15 6:43,0.9,11,1.1,11,0,11
2012/3/15 6:44,0.7,11,0.9,11,0.1,4
2012/3/15 6:45,0.6,11,0.7,11,1,3
2012/3/15 6:46,0.5,11,0.6,11,1.5,3
2012/3/15 6:47,0.5,11,0.5,11,2,3
2012/3/15 6:48,0.7,5,0.7,11,2.1,3
2012/3/15 6:49,0.8,3,0.8,11,2.4,3
2012/3/15 6:50,0.8,3,0.8,11,2,3
2012/3/15 6:51,1,3,1,11,1.9,4
2012/3/15 6:52,1.2,4,1.2,4,2.9,5
2012/3/15 6:53,1.3,4,1.3,4,2,6
2012/3/15 6:54,1.4,4,1.4,4,1.6,6
2012/3/15 6:55,1.4,4,1.4,4,1.5,6
2012/3/15 6:56,1.4,5,1.4,4,1.5,6
2012/3/15 6:57,1.4,5,1.4,4,1.4,6
2012/3/15 6:58,1.2,5,1.3,4,1.1,7
2012/3/15 6:59,1.1,6,1.2,4,0.8,5
2012/3/15 7:00,1,6,1,4,1.6,9
2012/3/15 7:01,0.9,6,1,4,1,9
2012/3/15 7:02,0.7,7,0.9,4,0.3,6
2012/3/15 7:03,0.6,7,0.7,4,0.1,11
2012/3/15 7:04,0.6,8,0.6,4,1.1,12
2012/3/15 7:05,0.6,8,0.6,4,1.6,11
2012/3/15 7:06,0.7,9,0.7,5,1.9,11
2012/3/15 7:07,0.8,10,0.8,5,2.1,11
2012/3/15 7:08,0.9,10,0.9,5,2.4,11
2012/3/15 7:09,1,11,1,6,2.2,12
2012/3/15 7:10,1.1,11,1.1,11,2.1,12
2012/3/15 7:11,1.2,11,1.2,11,2,12
2012/3/15 7:12,1.4,12,1.4,12,1.8,12
2012/3/15 7:13,1.5,12,1.5,12,2.2,12
2012/3/15 7:14,1.6,12,1.6,12,1.8,12
2012/3/15 7:15,1.6,12,1.6,12,1.8,12
2012/3/15 7:16,1.5,12,1.6,12,1.9,10
2012/3/15 7:17,1.5,12,1.5,12,1.9,11
2012/3/15 7:18,1.4,12,1.5,12,1.9,12
2012/3/15 7:19,1.3,12,1.4,12,1,13
2012/3/15 7:20,1.1,12,1.3,12,0.1,13
2012/3/15 7:21,1,12,1.1,12,0.1,1
2012/3/15 7:22,0.9,13,1,12,0.6,1
2012/3/15 7:23,0.7,13,0.9,12,0.4,2
2012/3/15 7:24,0.6,14,0.7,12,0.8,3
2012/3/15 7:25,0.5,15,0.6,12,0.6,2
2012/3/15 7:26,0.4,16,0.5,12,0.1,3
2012/3/15 7:27,0.3,1,0.4,12,0.9,6
2012/3/15 7:28,0.2,2,0.3,12,0.9,5
2012/3/15 7:29,0.2,2,0.2,12,0.3,13
2012/3/15 7:30,0.2,2,0.2,12,0.4,11
2012/3/15 7:31,0.2,2,0.2,12,0.9,11
2012/3/15 7:32,0.2,3,0.2,13,0.3,11
2012/3/15 7:33,0.2,9,0.2,13,0,11
2012/3/15 7:34,0.2,10,0.2,14,0,11
2012/3/15 7:35,0.1,10,0.2,15,0,11
2012/3/15 7:36,0.1,11,0.2,16,0.1,10
2012/3/15 7:37,0.1,11,0.1,1,0.1,5
2012/3/15 7:38,0.1,11,0.1,2,1,4
2012/3/15 7:39,0.2,11,0.2,2,1.3,3
2012/3/15 7:40,0.3,10,0.3,10,1.1,3
2012/3/15 7:41,0.3,6,0.3,10,1.1,3
2012/3/15 7:42,0.3,5,0.3,10,0.8,4
2012/3/15 7:43,0.3,5,0.3,10,0.9,11
2012/3/15 7:44,0.4,5,0.4,5,0.9,10
2012/3/15 7:45,0.4,5,0.4,5,0.4,9
2012/3/15 7:46,0.4,5,0.4,5,0.3,8
2012/3/15 7:47,0.4,5,0.4,5,0.3,9
2012/3/15 7:48,0.3,7,0.4,5,0.1,8
2012/3/15 7:49,0.3,8,0.3,5,0.9,9
2012/3/15 7:50,0.2,8,0.3,5,0.3,6
2012/3/15 7:51,0.1,8,0.2,5,0.1,4
2012/3/15 7:52,0.1,8,0.1,5,1,5
2012/3/15 7:53,0.2,7,0.2,5,0.9,6
2012/3/15 7:54,0.1,7,0.2,5,0.9,6
2012/3/15 7:55,0.1,6,0.1,5,0.1,3
2012/3/15 7:56,0.1,6,0.1,5,0.1,4
2012/3/15 7:57,0.1,5,0.1,6,0,4
2012/3/15 7:58,0.1,5,0.1,7,0.1,9
2012/3/15 7:59,0.1,5,0.1,8,0.9,9
2012/3/15 8:00,0.1,6,0.1,8,0.5,8
2012/3/15 8:01,0.2,6,0.2,8,0.5,9
2012/3/15 8:02,0.1,6,0.2,8,0.1,3
2012/3/15 8:03,0.1,5,0.1,7,0,3
2012/3/15 8:04,0,5,0.1,6,0,2
2012/3/15 8:05,0,5,0,6,0.1,7
2012/3/15 8:06,0,5,0,6,0.1,16
2012/3/15 8:07,0,5,0,6,0,1
2012/3/15 8:08,0.1,4,0.1,6,0.8,5
2012/3/15 8:09,0.1,4,0.1,6,0.8,5
2012/3/15 8:10,0.1,3,0.1,6,1.3,16
2012/3/15 8:11,0.2,3,0.2,6,1.3,16
2012/3/15 8:12,0.2,2,0.2,3,1.1,15
2012/3/15 8:13,0.2,2,0.2,3,0.8,1
2012/3/15 8:14,0.3,2,0.3,2,1,3
2012/3/15 8:15,0.4,2,0.4,2,1,3
2012/3/15 8:16,0.5,2,0.5,2,1.4,2
2012/3/15 8:17,0.6,2,0.6,2,1,2
2012/3/15 8:18,0.6,2,0.6,2,1.1,4
2012/3/15 8:19,0.7,2,0.7,2,1.5,4
2012/3/15 8:20,0.8,2,0.8,2,1.5,5
2012/3/15 8:21,0.8,3,0.8,2,1.4,5
2012/3/15 8:22,0.8,3,0.8,2,0.9,6
2012/3/15 8:23,0.8,4,0.8,2,1.1,5
2012/3/15 8:24,0.8,4,0.8,2,1.1,5
2012/3/15 8:25,0.8,4,0.8,2,1.1,3
2012/3/15 8:26,0.7,4,0.8,2,0.6,4
2012/3/15 8:27,0.6,4,0.7,2,0.8,9
2012/3/15 8:28,0.6,5,0.6,2,1.1,10
2012/3/15 8:29,0.6,5,0.6,2,2.6,7
2012/3/15 8:30,0.6,5,0.6,3,0.8,7
2012/3/15 8:31,0.6,6,0.6,3,2.4,9
2012/3/15 8:32,0.6,6,0.6,3,2.1,9
2012/3/15 8:33,0.6,7,0.6,4,0.8,10
2012/3/15 8:34,0.5,7,0.6,4,0.5,6
2012/3/15 8:35,0.5,8,0.5,4,0.5,10
2012/3/15 8:36,0.6,9,0.6,4,2.5,10
2012/3/15 8:37,0.7,9,0.7,9,1.9,8
2012/3/15 8:38,0.8,9,0.8,9,2.2,9
2012/3/15 8:39,0.8,10,0.8,9,2.4,9
2012/3/15 8:40,0.8,10,0.8,9,1.8,9
2012/3/15 8:41,0.8,10,0.8,9,3.1,10
2012/3/15 8:42,0.9,9,0.9,9,3.2,9
2012/3/15 8:43,1,10,1,9,3.1,10
2012/3/15 8:44,1.1,10,1.1,10,1.5,9
2012/3/15 8:45,1.2,10,1.2,10,2.2,10
2012/3/15 8:46,1.2,10,1.2,10,2.7,9
2012/3/15 8:47,1.2,10,1.2,10,2.5,9
2012/3/15 8:48,1.2,10,1.2,10,2.7,10
2012/3/15 8:49,1.3,10,1.3,10,2.5,14
2012/3/15 8:50,1.3,11,1.3,10,2.6,10
2012/3/15 8:51,1.2,11,1.3,10,1.1,14
2012/3/15 8:52,1.1,11,1.2,10,0.4,14
2012/3/15 8:53,1,11,1,10,1.1,8
2012/3/15 8:54,1,11,1,10,2,10
2012/3/15 8:55,1,11,1,10,2.4,10
2012/3/15 8:56,1.1,11,1.1,10,2.9,10
2012/3/15 8:57,1.2,11,1.2,10,2.7,10
2012/3/15 8:58,1.2,11,1.2,10,2.2,10
2012/3/15 8:59,1.2,11,1.2,10,1.9,10
2012/3/15 9:00,1.2,11,1.2,11,1.8,9
2012/3/15 9:01,1.3,10,1.3,10,1.9,9
2012/3/15 9:02,1.3,10,1.3,10,0.6,11
2012/3/15 9:03,1.3,10,1.3,10,0.1,9
2012/3/15 9:04,1.1,11,1.3,10,0.5,10
2012/3/15 9:05,1,10,1.1,10,0.8,9
2012/3/15 9:06,0.9,11,1,10,0.8,13
2012/3/15 9:07,0.7,11,0.9,10,1,14
2012/3/15 9:08,0.6,11,0.7,10,0.4,15
2012/3/15 9:09,0.4,11,0.5,10,0.1,7
2012/3/15 9:10,0.3,12,0.4,10,0.4,1
2012/3/15 9:11,0.2,13,0.3,10,0.6,16
2012/3/15 9:12,0.2,14,0.2,10,0.4,2
2012/3/15 9:13,0.2,13,0.2,10,0.4,9
2012/3/15 9:14,0.2,13,0.2,11,1.1,9
2012/3/15 9:15,0.2,14,0.2,10,0.9,11
2012/3/15 9:16,0.2,13,0.2,11,1.8,9
2012/3/15 9:17,0.2,12,0.2,11,1.1,8
2012/3/15 9:18,0.2,10,0.2,11,1.1,7
2012/3/15 9:19,0.4,9,0.4,11,2.6,6
2012/3/15 9:20,0.5,9,0.5,9,3.2,9
2012/3/15 9:21,0.6,9,0.6,9,2.4,8
2012/3/15 9:22,0.7,9,0.7,9,2.6,7
2012/3/15 9:23,0.9,8,0.9,8,2.2,6
2012/3/15 9:24,1,8,1,8,2.2,8
2012/3/15 9:25,1.1,7,1.1,7,3.1,7
2012/3/15 9:26,1.2,7,1.2,7,2.7,7
2012/3/15 9:27,1.2,8,1.2,7,1.4,11
2012/3/15 9:28,1.3,8,1.3,8,3.1,14
2012/3/15 9:29,1.3,8,1.3,8,2.5,14
2012/3/15 9:30,1.2,8,1.3,8,2.1,14
2012/3/15 9:31,1.3,7,1.3,8,3.5,3
2012/3/15 9:32,1.6,6,1.6,6,8.5,1
2012/3/15 9:33,1.6,16,1.6,6,5.4,16
2012/3/15 9:34,1.7,16,1.7,15,5.2,2
2012/3/15 9:35,1.8,16,1.8,16,3.8,16
2012/3/15 9:36,1.9,16,1.9,16,4.5,15
2012/3/15 9:37,2.2,16,2.2,16,5.5,3
2012/3/15 9:38,2.3,1,2.3,1,3.5,16
2012/3/15 9:39,2.5,1,2.5,1,4.3,3
2012/3/15 9:40,2.6,2,2.6,1,3,2
2012/3/15 9:41,2.5,2,2.6,1,1.6,4
2012/3/15 9:42,2.3,2,2.5,1,4.7,5
2012/3/15 9:43,2.3,3,2.3,1,4.2,7
2012/3/15 9:44,2.1,3,2.3,1,2.7,4
2012/3/15 9:45,2,3,2.1,1,2.9,10
2012/3/15 9:46,1.9,4,2,1,2.6,9
2012/3/15 9:47,1.7,5,1.9,1,4.3,9
2012/3/15 9:48,1.7,6,1.7,1,3.5,8
2012/3/15 9:49,1.8,7,1.8,1,4.1,8
2012/3/15 9:50,1.7,7,1.8,2,3.6,7
2012/3/15 9:51,1.8,8,1.8,2,3.2,8
2012/3/15 9:52,1.8,8,1.9,2,3.6,9
2012/3/15 9:53,1.8,8,1.8,3,4.2,8
2012/3/15 9:54,1.9,8,1.9,3,3.6,7
2012/3/15 9:55,2,8,2,4,4.8,9
2012/3/15 9:56,2,8,2.1,8,3.9,8
2012/3/15 9:57,2,8,2.1,8,3,8
2012/3/15 9:58,2,8,2,8,3.6,8
2012/3/15 9:59,1.9,9,2,8,3.2,9
2012/3/15 10:00,1.9,9,1.9,8,3.2,9
2012/3/15 10:01,1.8,9,1.9,8,2.7,8
2012/3/15 10:02,1.7,9,1.7,8,2.4,8
2012/3/15 10:03,1.7,9,1.7,8,2.7,8
2012/3/15 10:04,1.6,8,1.6,8,2.7,8
2012/3/15 10:05,1.4,9,1.6,8,1.6,12
2012/3/15 10:06,1.4,9,1.4,8,2.9,9
2012/3/15 10:07,1.5,9,1.5,8,4.8,9
2012/3/15 10:08,1.4,9,1.5,8,2.1,9
2012/3/15 10:09,1.2,9,1.4,9,1.6,10
2012/3/15 10:10,1.2,9,1.2,9,2.2,9
2012/3/15 10:11,1.3,9,1.3,9,2.2,8
2012/3/15 10:12,1.2,9,1.2,9,3.5,9
2012/3/15 10:13,1.3,9,1.3,9,3.6,9
2012/3/15 10:14,1.4,9,1.4,8,3.1,10
2012/3/15 10:15,1.4,9,1.4,9,2,8
2012/3/15 10:16,1.3,9,1.4,9,1,11
2012/3/15 10:17,1.1,9,1.2,9,0.6,11
2012/3/15 10:18,1.1,10,1.1,9,2,1
2012/3/15 10:19,1.2,10,1.2,9,2.2,16
2012/3/15 10:20,1.2,10,1.2,9,4.1,16
2012/3/15 10:21,1.3,13,1.3,9,3.8,16
2012/3/15 10:22,1.5,15,1.5,15,5.2,14
2012/3/15 10:23,1.6,15,1.6,15,6,16
2012/3/15 10:24,1.7,16,1.7,15,6.2,1
2012/3/15 10:25,1.9,15,1.9,15,6.7,15
2012/3/15 10:26,2.2,15,2.2,15,6.1,15
2012/3/15 10:27,2.6,15,2.6,15,6.4,15
2012/3/15 10:28,2.8,16,2.8,16,5,1
2012/3/15 10:29,3.1,16,3.1,16,7,16
2012/3/15 10:30,3.3,16,3.3,16,4.4,1
2012/3/15 10:31,3.1,16,3.2,16,1.8,15
2012/3/15 10:32,2.9,16,3.1,16,3,16
2012/3/15 10:33,2.7,16,2.9,16,3,14
2012/3/15 10:34,2.6,16,2.7,16,5.2,16
2012/3/15 10:35,2.6,16,2.6,16,5.7,15
2012/3/15 10:36,2.6,16,2.6,16,4.3,15
2012/3/15 10:37,2.4,16,2.5,16,4.1,16
2012/3/15 10:38,2.4,16,2.4,16,4.8,15
2012/3/15 10:39,2.4,16,2.5,16,4.8,15
2012/3/15 10:40,2.3,16,2.4,16,3.5,15
2012/3/15 10:41,2.4,16,2.4,16,4.2,16
2012/3/15 10:42,2.5,15,2.5,16,4.2,1
2012/3/15 10:43,2.6,16,2.6,16,3.2,3
2012/3/15 10:44,2.6,16,2.6,16,1.9,4
2012/3/15 10:45,2.4,16,2.5,16,3.8,16
2012/3/15 10:46,2.4,16,2.4,15,3.7,1
2012/3/15 10:47,2.3,16,2.4,15,3.1,4
2012/3/15 10:48,2.1,1,2.3,15,4.3,15
2012/3/15 10:49,1.9,1,2.1,15,4.3,15
2012/3/15 10:50,2.1,1,2.1,15,5.6,16
2012/3/15 10:51,2.2,16,2.2,15,5.7,16
2012/3/15 10:52,2.3,16,2.3,15,4.7,15
2012/3/15 10:53,2.2,16,2.3,16,3.7,16
2012/3/15 10:54,2.3,15,2.3,16,5.4,14
2012/3/15 10:55,2.7,15,2.7,15,7.4,15
2012/3/15 10:56,3,15,3,15,8.7,15
2012/3/15 10:57,3.3,15,3.3,15,7.5,14
2012/3/15 10:58,3.5,15,3.6,15,8.2,15
2012/3/15 10:59,3.7,15,3.7,15,6,16
2012/3/15 11:00,3.5,15,3.7,15,4.5,15
2012/3/15 11:01,3.3,15,3.5,15,2.6,15
2012/3/15 11:02,3.2,15,3.3,15,3.8,15
2012/3/15 11:03,3.1,15,3.2,15,3,15
2012/3/15 11:04,3.1,15,3.1,15,4.3,16
2012/3/15 11:05,3.1,15,3.1,15,7,14
2012/3/15 11:06,2.8,15,3,15,5.6,15
2012/3/15 11:07,2.5,15,2.8,15,4.9,15
2012/3/15 11:08,2.4,15,2.6,15,7.8,16
2012/3/15 11:09,2.6,15,2.6,15,8.5,14
2012/3/15 11:10,2.8,15,2.8,15,7.5,1
2012/3/15 11:11,3.3,15,3.3,15,13.9,15
2012/3/15 11:12,3.8,15,3.8,15,13.4,16
2012/3/15 11:13,4.4,15,4.4,15,15.7,16
2012/3/15 11:14,4.7,15,4.7,15,6.3,1
2012/3/15 11:15,4.7,16,4.7,15,8.9,1
2012/3/15 11:16,4.6,16,4.7,15,7.6,1